2016-02-05 00:03:05 r, 14.81m,0000000104Hz,0000004397c,0000000.010s, 010.3C,00002195
2016-02-05 00:13:04 r, 14.93m,0000000094Hz,0000004906c,0000000.011s, 010.3C,00002195
2016-02-05 00:23:04 r, 15.03m,0000000085Hz,0000005359c,0000000.012s, 010.6C,00002195
2016-02-05 00:33:04 r, 15.12m,0000000079Hz,0000005825c,0000000.013s, 010.6C,00002195
2016-02-05 00:43:05 r, 15.18m,0000000075Hz,0000006121c,0000000.013s, 010.6C,00002195
2016-02-05 00:53:04 r, 15.32m,0000000066Hz,0000007009c,0000000.015s, 010.6C,00002195
2016-02-05 01:03:04 r, 15.25m,0000000070Hz,0000006529c,0000000.014s, 010.6C,00002195
2016-02-05 01:13:05 r, 15.12m,0000000079Hz,0000005794c,0000000.013s, 010.6C,00002195
2016-02-05 01:23:04 r, 14.97m,0000000090Hz,0000005081c,0000000.011s, 010.6C,00002195
2016-02-05 01:33:05 r, 14.97m,0000000091Hz,0000005096c,0000000.011s, 010.9C,00002195
2016-02-05 01:43:06 r, 14.93m,0000000094Hz,0000004896c,0000000.011s, 010.9C,00002195
2016-02-05 01:53:04 r, 14.83m,0000000103Hz,0000004461c,0000000.010s, 010.9C,00002195
2016-02-05 02:03:05 r, 14.72m,0000000114Hz,0000004003c,0000000.009s, 011.2C,00002195
2016-02-05 02:13:05 r, 14.67m,0000000119Hz,0000003853c,0000000.008s, 011.2C,00002195
2016-02-05 02:23:04 r, 14.68m,0000000118Hz,0000003884c,0000000.008s, 011.2C,00002195
2016-02-05 02:33:06 r, 14.74m,0000000111Hz,0000004123c,0000000.009s, 011.2C,00002195
2016-02-05 02:43:05 r, 14.78m,0000000109Hz,0000004257c,0000000.009s, 011.2C,00002195
2016-02-05 02:53:04 r, 14.75m,0000000111Hz,0000004131c,0000000.009s, 011.6C,00002195
2016-02-05 03:03:06 r, 14.80m,0000000107Hz,0000004334c,0000000.009s, 011.6C,00002195
2016-02-05 03:13:05 r, 14.80m,0000000106Hz,0000004322c,0000000.009s, 011.6C,00002195
2016-02-05 03:23:04 r, 14.77m,0000000108Hz,0000004196c,0000000.009s, 011.6C,00002195
2016-02-05 03:33:04 r, 14.70m,0000000116Hz,0000003948c,0000000.009s, 011.6C,00002195
2016-02-05 03:43:05 r, 14.69m,0000000117Hz,0000003930c,0000000.009s, 011.6C,00002195
2016-02-05 03:53:04 r, 14.80m,0000000107Hz,0000004340c,0000000.009s, 011.9C,00002195
2016-02-05 04:03:04 r, 14.66m,0000000121Hz,0000003818c,0000000.008s, 011.9C,00002195
2016-02-05 04:13:06 r, 14.65m,0000000122Hz,0000003750c,0000000.008s, 011.9C,00002195
2016-02-05 04:23:04 r, 14.58m,0000000131Hz,0000000000c,0000000.000s, 011.9C,00002195
2016-02-05 04:33:05 r, 14.55m,0000000135Hz,0000000000c,0000000.000s, 011.9C,00002195
2016-02-05 04:43:05 r, 14.53m,0000000137Hz,0000000000c,0000000.000s, 011.9C,00002195
2016-02-05 04:53:04 r, 14.50m,0000000141Hz,0000000000c,0000000.000s, 011.9C,00002195
2016-02-05 05:03:04 r, 14.60m,0000000128Hz,0000000000c,0000000.000s, 011.9C,00002195
2016-02-05 05:13:05 r, 14.62m,0000000125Hz,0000003681c,0000000.008s, 011.9C,00002195
2016-02-05 05:23:04 r, 14.62m,0000000125Hz,0000003666c,0000000.008s, 011.9C,00002195
2016-02-05 05:33:05 r, 14.72m,0000000115Hz,0000004036c,0000000.009s, 011.9C,00002195
2016-02-05 05:43:05 r, 15.00m,0000000088Hz,0000005240c,0000000.011s, 012.2C,00002195
2016-02-05 05:53:04 r, 15.18m,0000000076Hz,0000006117c,0000000.013s, 012.2C,00002195
2016-02-05 06:03:05 r, 15.26m,0000000069Hz,0000006637c,0000000.014s, 011.9C,00002195
2016-02-05 06:13:05 r, 15.19m,0000000073Hz,0000006238c,0000000.014s, 011.9C,00002195
2016-02-05 06:23:04 r, 15.53m,0000000054Hz,0000008545c,0000000.019s, 011.9C,00002195
2016-02-05 06:33:04 r, 15.66m,0000000048Hz,0000009576c,0000000.021s, 011.6C,00002195
2016-02-05 06:43:04 r, 15.57m,0000000052Hz,0000008841c,0000000.019s, 011.6C,00002195
2016-02-05 06:53:04 r, 15.76m,0000000044Hz,0000010496c,0000000.023s, 011.2C,00002195
2016-02-05 07:03:05 r, 15.65m,0000000048Hz,0000009527c,0000000.021s, 011.2C,00002195
2016-02-05 07:13:05 r, 14.97m,0000000090Hz,0000005111c,0000000.011s, 011.2C,00002195
2016-02-05 07:23:04 r, 13.44m,0000000374Hz,0000000000c,0000000.000s, 010.9C,00002195
2016-02-05 07:33:05 r, 11.54m,0000002159Hz,0000000000c,0000000.000s, 010.9C,00002195
2016-02-05 07:43:04 r, 09.78m,0000010973Hz,0000000000c,0000000.000s, 010.6C,00002195
2016-02-05 07:53:04 r, 08.43m,0000038117Hz,0000000000c,0000000.000s, 010.3C,00002195
2016-02-05 08:03:05 r, 07.48m,0000090139Hz,0000000000c,0000000.000s, 010.3C,00002195
2016-02-05 08:13:05 r, 06.89m,0000157113Hz,0000000000c,0000000.000s, 010.3C,00002195
2016-02-05 08:23:04 r, 06.46m,0000231548Hz,0000000000c,0000000.000s, 010.3C,00002195
2016-02-05 08:33:05 r, 06.22m,0000290954Hz,0000000000c,0000000.000s, 010.6C,00002195
2016-02-05 08:43:06 r, 00.00m,0000428134Hz,0000000000c,0000000.000s, 010.9C,00002195
2016-02-05 08:53:04 r, 00.00m,0000519064Hz,0000000000c,0000000.000s, 011.2C,00002195
2016-02-05 09:03:04 r, 00.00m,0000562137Hz,0000000000c,0000000.000s, 011.9C,00002195
2016-02-05 09:13:05 r, 00.00m,0000562284Hz,0000000000c,0000000.000s, 012.2C,00002195
2016-02-05 09:23:04 r, 00.00m,0000562282Hz,0000000000c,0000000.000s, 012.2C,00002195
2016-02-05 09:33:05 r, 00.00m,0000562572Hz,0000000000c,0000000.000s, 013.2C,00002195
2016-02-05 09:43:05 r, 00.00m,0000562822Hz,0000000000c,0000000.000s, 014.8C,00002195
2016-02-05 09:53:04 r, 00.00m,0000562793Hz,0000000000c,0000000.000s, 016.1C,00002195
2016-02-05 10:03:05 r, 00.00m,0000562860Hz,0000000000c,0000000.000s, 016.7C,00002195
2016-02-05 10:13:05 r, 00.00m,0000563005Hz,0000000000c,0000000.000s, 016.4C,00002195
2016-02-05 10:23:04 r, 00.00m,0000562813Hz,0000000000c,0000000.000s, 015.7C,00002195
2016-02-05 10:33:05 r, 00.00m,0000563008Hz,0000000000c,0000000.000s, 016.1C,00002195
2016-02-05 10:43:06 r, 00.00m,0000563209Hz,0000000000c,0000000.000s, 018.3C,00002195
2016-02-05 10:53:04 r, 00.00m,0000563313Hz,0000000000c,0000000.000s, 019.6C,00002195
2016-02-05 11:03:05 r, 00.00m,0000563443Hz,0000000000c,0000000.000s, 020.3C,00002195
2016-02-05 11:13:05 r, 00.00m,0000563492Hz,0000000000c,0000000.000s, 020.6C,00002195
2016-02-05 11:23:04 r, 00.00m,0000563563Hz,0000000000c,0000000.000s, 020.6C,00002195
2016-02-05 11:33:06 r, 00.00m,0000563464Hz,0000000000c,0000000.000s, 020.3C,00002195
2016-02-05 11:43:05 r, 00.00m,0000563461Hz,0000000000c,0000000.000s, 019.9C,00002195
2016-02-05 11:53:04 r, 00.00m,0000563416Hz,0000000000c,0000000.000s, 019.6C,00002195
2016-02-05 12:03:04 r, 00.00m,0000563336Hz,0000000000c,0000000.000s, 019.3C,00002195
2016-02-05 12:13:05 r, 00.00m,0000563314Hz,0000000000c,0000000.000s, 019.3C,00002195
2016-02-05 12:23:04 r, 00.00m,0000563201Hz,0000000000c,0000000.000s, 018.6C,00002195
2016-02-05 12:33:04 r, 00.00m,0000563140Hz,0000000000c,0000000.000s, 018.0C,00002195
2016-02-05 12:43:05 r, 00.00m,0000563211Hz,0000000000c,0000000.000s, 018.0C,00002195
2016-02-05 12:53:04 r, 00.00m,0000563184Hz,0000000000c,0000000.000s, 017.7C,00002195
2016-02-05 13:03:05 r, 00.00m,0000563140Hz,0000000000c,0000000.000s, 017.7C,00002195
2016-02-05 13:13:05 r, 00.00m,0000563156Hz,0000000000c,0000000.000s, 017.7C,00002195
2016-02-05 13:23:04 r, 00.00m,0000563188Hz,0000000000c,0000000.000s, 018.0C,00002195
2016-02-05 13:33:05 r, 00.00m,0000563237Hz,0000000000c,0000000.000s, 018.0C,00002195
2016-02-05 13:43:07 r, 00.00m,0000563219Hz,0000000000c,0000000.000s, 018.0C,00002195
2016-02-05 13:53:05 r, 00.00m,0000563190Hz,0000000000c,0000000.000s, 018.0C,00002195
2016-02-05 14:03:04 r, 00.00m,0000563163Hz,0000000000c,0000000.000s, 018.0C,00002195
2016-02-05 14:13:05 r, 00.00m,0000563231Hz,0000000000c,0000000.000s, 017.7C,00002195
2016-02-05 14:23:04 r, 00.00m,0000563113Hz,0000000000c,0000000.000s, 017.7C,00002195
2016-02-05 14:33:04 r, 00.00m,0000563108Hz,0000000000c,0000000.000s, 017.7C,00002195
2016-02-05 14:43:04 r, 00.00m,0000562928Hz,0000000000c,0000000.000s, 017.0C,00002195
2016-02-05 14:53:04 r, 00.00m,0000563005Hz,0000000000c,0000000.000s, 016.4C,00002195
2016-02-05 15:03:04 r, 00.00m,0000562857Hz,0000000000c,0000000.000s, 016.1C,00002195
2016-02-05 15:13:07 r, 00.00m,0000562829Hz,0000000000c,0000000.000s, 015.4C,00002195
2016-02-05 15:23:05 r, 00.00m,0000562761Hz,0000000000c,0000000.000s, 015.4C,00002195
2016-02-05 15:33:04 r, 00.00m,0000562696Hz,0000000000c,0000000.000s, 015.1C,00002195
2016-02-05 15:43:07 r, 00.00m,0000562722Hz,0000000000c,0000000.000s, 014.8C,00002195
2016-02-05 15:53:05 r, 00.00m,0000562640Hz,0000000000c,0000000.000s, 014.5C,00002195
2016-02-05 16:03:04 r, 00.00m,0000562631Hz,0000000000c,0000000.000s, 014.1C,00002195
2016-02-05 16:13:04 r, 00.00m,0000562406Hz,0000000000c,0000000.000s, 013.8C,00002195
2016-02-05 16:23:06 r, 00.00m,0000562443Hz,0000000000c,0000000.000s, 013.5C,00002195
2016-02-05 16:33:04 r, 00.00m,0000562419Hz,0000000000c,0000000.000s, 013.5C,00002195
2016-02-05 16:43:06 r, 00.00m,0000562437Hz,0000000000c,0000000.000s, 013.2C,00002195
2016-02-05 16:53:05 r, 00.00m,0000562427Hz,0000000000c,0000000.000s, 012.8C,00002195
2016-02-05 17:03:04 r, 00.00m,0000516051Hz,0000000000c,0000000.000s, 012.8C,00002195
2016-02-05 17:13:04 r, 06.26m,0000279819Hz,0000000000c,0000000.000s, 012.5C,00002195
2016-02-05 17:23:07 r, 06.95m,0000147707Hz,0000000000c,0000000.000s, 012.2C,00002195
2016-02-05 17:33:04 r, 07.81m,0000067122Hz,0000000000c,0000000.000s, 012.2C,00002195
2016-02-05 17:43:04 r, 09.08m,0000020832Hz,0000000000c,0000000.000s, 011.9C,00002195
2016-02-05 17:53:06 r, 10.80m,0000004265Hz,0000000000c,0000000.000s, 011.6C,00002195
2016-02-05 18:03:04 r, 12.73m,0000000720Hz,0000000000c,0000000.000s, 011.6C,00002195
2016-02-05 18:13:04 r, 14.05m,0000000214Hz,0000000000c,0000000.000s, 011.6C,00002195
2016-02-05 18:23:06 r, 14.55m,0000000135Hz,0000000000c,0000000.000s, 011.6C,00002195
2016-02-05 18:33:04 r, 14.77m,0000000110Hz,0000004201c,0000000.009s, 011.6C,00002195
2016-02-05 18:43:06 r, 15.27m,0000000069Hz,0000006707c,0000000.015s, 011.6C,00002195
2016-02-05 18:53:05 r, 15.37m,0000000063Hz,0000007353c,0000000.016s, 011.2C,00002195
2016-02-05 19:03:04 r, 16.23m,0000000028Hz,0000016207c,0000000.035s, 011.6C,00002195
2016-02-05 19:13:05 r, 16.04m,0000000035Hz,0000013543c,0000000.029s, 011.2C,00002195
2016-02-05 19:23:05 r, 15.09m,0000000081Hz,0000005643c,0000000.012s, 011.2C,00002195
2016-02-05 19:33:04 r, 14.47m,0000000145Hz,0000000000c,0000000.000s, 011.6C,00002195
2016-02-05 19:43:05 r, 14.33m,0000000164Hz,0000000000c,0000000.000s, 011.2C,00002195
2016-02-05 19:53:07 r, 14.32m,0000000167Hz,0000000000c,0000000.000s, 011.6C,00002195
2016-02-05 20:03:04 r, 14.23m,0000000181Hz,0000000000c,0000000.000s, 011.2C,00002195
2016-02-05 20:13:07 r, 14.20m,0000000185Hz,0000000000c,0000000.000s, 011.2C,00002195
2016-02-05 20:23:05 r, 14.17m,0000000191Hz,0000000000c,0000000.000s, 011.2C,00002195
2016-02-05 20:33:04 r, 14.42m,0000000152Hz,0000000000c,0000000.000s, 011.2C,00002195
2016-02-05 20:43:05 r, 14.45m,0000000148Hz,0000000000c,0000000.000s, 011.6C,00002195
2016-02-05 20:53:06 r, 14.39m,0000000156Hz,0000000000c,0000000.000s, 011.6C,00002195
2016-02-05 21:03:04 r, 14.35m,0000000162Hz,0000000000c,0000000.000s, 011.6C,00002195
2016-02-05 21:13:04 r, 14.56m,0000000134Hz,0000000000c,0000000.000s, 011.6C,00002195
2016-02-05 21:23:07 r, 14.54m,0000000136Hz,0000000000c,0000000.000s, 011.6C,00002195
2016-02-05 21:33:04 r, 14.65m,0000000122Hz,0000003770c,0000000.008s, 011.9C,00002195
2016-02-05 21:43:05 r, 14.82m,0000000104Hz,0000004431c,0000000.010s, 011.9C,00002195
2016-02-05 21:53:07 r, 14.70m,0000000115Hz,0000003946c,0000000.009s, 011.9C,00002195
2016-02-05 22:03:04 r, 14.77m,0000000107Hz,0000004240c,0000000.009s, 011.9C,00002195
2016-02-05 22:13:04 r, 14.80m,0000000107Hz,0000004320c,0000000.009s, 011.9C,00002195
2016-02-05 22:23:06 r, 14.97m,0000000090Hz,0000005092c,0000000.011s, 011.9C,00002195
2016-02-05 22:33:04 r, 15.30m,0000000067Hz,0000006888c,0000000.015s, 011.9C,00002195
2016-02-05 22:43:07 r, 15.01m,0000000089Hz,0000005260c,0000000.011s, 012.2C,00002195
2016-02-05 22:53:04 r, 15.18m,0000000074Hz,0000006128c,0000000.013s, 011.9C,00002195
2016-02-05 23:03:04 r, 15.63m,0000000050Hz,0000009281c,0000000.020s, 011.9C,00002195
2016-02-05 23:13:05 r, 15.59m,0000000051Hz,0000008967c,0000000.019s, 011.9C,00002195
2016-02-05 23:23:05 r, 15.52m,0000000055Hz,0000008394c,0000000.018s, 011.9C,00002195
2016-02-05 23:33:04 r, 15.60m,0000000052Hz,0000009033c,0000000.020s, 011.9C,00002195
2016-02-05 23:43:04 r, 15.70m,0000000046Hz,0000009940c,0000000.022s, 011.9C,00002195
2016-02-05 23:53:07 r, 15.74m,0000000045Hz,0000010293c,0000000.022s, 011.9C,00002195
